STARLINK-35623, 66138

Orbit data source: Space-Track

STARLINK-35623, 66138 is a payload satellite owned by SpaceX/Seattle (US) in LEO that was launched on Wed, 22 Oct 2025 UTC via an FALCON 9 launch vehicle from the Air Force Western Test Range (AFWTR). Payload-class satellites include a variety of spacecraft equipped with specific instruments for various scientific and technological missions. These include communications satellites like Starlink; space stations such as the ISS; scientific satellites like the Hubble; Earth observation satellites from companies like Planet Labs, Umbra, and HawkEye 360; GPS; miniature CubeSats for education and research; and military/defense satellites.

Loading next visibility...
Identifier
66138, 2025-237AA
Orbit
LEO
Country
Flag of USUS
Related business
Manufacturer
SpaceX/Seattle
Mission
Operational Commercial Communications
Bus & Motor
STARLINK V2MO, Unknown motor
Mass
575 kg wet, ~530 kg dry
Launch date (UTC)
2025-10-22 (4 months ago)
Launch vehicle
FALCON 9
Launch site
Air Force Western Test Range (AFWTR)
Object type
Payload
Rocket body
Debris
Shape & HBR
Box + 2 Pan, 17.7 m
Radar Cross Section
36.964 m²

Expand to show TLE details & history
Last TLE update: 19 hours ago

TLE from 19 hours ago
0 STARLINK-35623
1 66138U 25237AA  26061.35333572  .00025979  00000-0  88621-3 0  9999
2 66138  53.1599  73.9585 0001273  89.5052 270.6095 15.30198840 21480
Epoch: 2026-03-02T08:28Z
TLE epoch observation values (Epoch: 2026-03-02T08:28:48.206Z)
Latitude
0.00002°
Longitude
146.60969°
Altitude
476.109 km
Speed
7.629 km/s
True Right ascension
04h 55m 50s
True Declination
0° 00' 00"
Sunlit
Object was in daylight at epoch
Visualization orbit readout
Latitude
Unknown
Longitude
Unknown
Altitude
Unknown
Speed
Unknown
Apparent Right ascension
Unknown
Apparent Declination
Unknown
Sunlit
N/A
Visualization observer readout
Local Sidereal Time
07:14:19
Azimuth
Unknown
Elevation
Unknown
Doppler factor
Unknown
Orbital elements
Apogee altitude
476.347 km
Perigee altitude
474.603 km
Semi-major axis
6,853.612 km
Eccentricity
0.00013
Inclination
53.1599°
RAAN
73.9585°
Arg. of periapsis
89.5052°
True anomaly
270.59491°
Mean anomaly
270.6095°
Eccentric anomaly
270.60221°
Mean motion
3.82529 °/min
Orbital period
94.11 mins
BSTAR
0.00088621
Loading maneuver chart data...
Computing Atmospheric mass density...
Loading historical data...
Loading historical data...
Loading historical data...
Loading historical data...
Loading historical data...
Loading historical data...
Loading historical data...

Documentation

Showing up to 5 results
|